FLOCK 2K-18

Last updated on Wed Feb 14 2018 16:20:54 GMT+0000 (Coordinated Universal Time)

1 42887U 17042BQ 18044.95731559 .00006133 00000-0 17908-3 0 9995 2 42887 96.9930 307.8583 0012520 178.2011 181.9281 15.35581312 32729
UTC large
Height (km)
Speed (km/s)
/
Latitude / Longitude
Inclination (degrees)
Orbital Period (minutes)
Azimuth
Elevation
Range (km)
Doppler Factor

Next 0 passes for location: London (51.5072 / 0.1276)

Sorry there are no passes over London.